| time (UTC) | temp C | wind direction | speed KPH | gust KPH | rain 1hr cm | rain 24hr cm | rain mn cm | humidity % | barometer mb |
| 20260505040050 | 21 | 0.0 | 1.6 | 0.00 | 0.00 | 0.00 | 82 | 1025.9 | |
| 20260505035048 | 22 | 0.0 | 0.0 | 0.00 | 0.00 | 0.00 | 81 | 1026.0 | |
| 20260505034045 | 22 | 0.0 | 1.6 | 0.00 | 0.00 | 0.00 | 82 | 1025.9 | |
| 20260505033042 | 22 | 0.0 | 1.6 | 0.00 | 0.00 | 0.00 | 82 | 1025.8 | |
| 20260505032039 | 22 | 0.0 | 1.6 | 0.00 | 0.00 | 0.00 | 82 | 1025.9 | |
| 20260505031057 | 22 | 0.0 | 1.6 | 0.00 | 0.00 | 0.00 | 83 | 1026.1 | |
| 20260505030054 | 22 | 0.0 | 1.6 | 0.00 | 0.00 | 0.00 | 83 | 1026.1 | |
| 20260505025051 | 22 | 0.0 | 1.6 | 0.00 | 0.00 | 0.00 | 83 | 1026.1 | |
| 20260505024028 | 21 | 0.0 | 1.6 | 0.00 | 0.00 | 0.00 | 85 | 1026.0 | |
| 20260505023025 | 21 | 0.0 | 0.0 | 0.00 | 0.00 | 0.00 | 85 | 1026.1 | |
| 20260505022023 | 21 | 0.0 | 0.0 | 0.00 | 0.00 | 0.00 | 85 | 1026.2 | |
| 20260505021040 | 21 | 0.0 | 0.0 | 0.00 | 0.00 | 0.00 | 86 | 1026.0 | |
| 20260505020017 | 21 | 0.0 | 0.0 | 0.00 | 0.00 | 0.00 | 87 | 1026.1 | |
| 20260505015115 | 21 | 0.0 | 0.0 | 0.00 | 0.00 | 0.00 | 86 | 1026.0 | |
| 20260505014112 | 21 | 0.0 | 0.0 | 0.00 | 0.00 | 0.00 | 84 | 1026.0 | |
| 20260505013109 | 21 | 0.0 | 0.0 | 0.00 | 0.00 | 0.00 | 85 | 1025.9 | |
| 20260505012106 | 21 | 0.0 | 0.0 | 0.00 | 0.00 | 0.00 | 85 | 1025.9 | |
| 20260505011124 | 21 | 0.0 | 0.0 | 0.00 | 0.00 | 0.00 | 86 | 1025.8 | |
| 20260505010121 | 21 | 0.0 | 0.0 | 0.00 | 0.00 | 0.00 | 86 | 1025.8 | |
| 20260505005058 | 21 | 0.0 | 0.0 | 0.00 | 0.00 | 0.00 | 87 | 1025.7 | |
| 20260505004115 | 21 | 0.0 | 0.0 | 0.00 | 0.00 | 0.00 | 87 | 1025.9 | |
| 20260505003053 | 21 | 0.0 | 0.0 | 0.00 | 0.00 | 0.00 | 88 | 1025.8 | |
| 20260505002109 | 21 | 0.0 | 0.0 | 0.00 | 0.00 | 0.00 | 89 | 1025.7 | |
| 20260505001047 | 21 | 0.0 | 0.0 | 0.00 | 0.00 | 0.00 | 90 | 1025.8 | |
| 20260505000044 | 21 | 0.0 | 0.0 | 0.00 | 0.00 | 0.00 | 88 | 1025.8 | |
| 20260504235041 | 21 | 0.0 | 0.0 | 0.00 | 0.00 | 0.00 | 90 | 1025.8 | |
| 20260504234038 | 21 | 0.0 | 0.0 | 0.00 | 0.00 | 0.00 | 91 | 1025.7 | |
| 20260504233036 | 21 | 0.0 | 0.0 | 0.00 | 0.00 | 0.00 | 91 | 1025.7 | |
| 20260504232032 | 21 | 0.0 | 0.0 | 0.00 | 0.00 | 0.00 | 91 | 1025.6 | |
| 20260504231030 | 21 | 0.0 | 0.0 | 0.00 | 0.00 | 0.00 | 90 | 1025.7 | |
| 20260504230027 | 21 | 0.0 | 0.0 | 0.00 | 0.00 | 0.00 | 89 | 1025.5 | |
| 20260504225025 | 21 | 0.0 | 0.0 | 0.00 | 0.00 | 0.00 | 89 | 1025.4 | |
| 20260504224022 | 21 | 0.0 | 0.0 | 0.00 | 0.00 | 0.00 | 88 | 1025.3 | |
| 20260504223019 | 21 | 0.0 | 0.0 | 0.00 | 0.00 | 0.00 | 87 | 1025.3 | |
| 20260504222016 | 21 | 0.0 | 0.0 | 0.00 | 0.00 | 0.00 | 86 | 1025.3 | |
| 20260504221134 | 21 | 0.0 | 0.0 | 0.00 | 0.00 | 0.00 | 86 | 1025.2 | |
| 20260504220111 | 21 | 0.0 | 0.0 | 0.00 | 0.00 | 0.00 | 87 | 1025.3 | |
| 20260504215108 | 21 | 0.0 | 0.0 | 0.00 | 0.00 | 0.00 | 86 | 1025.3 | |
| 20260504214105 | 21 | 0.0 | 0.0 | 0.00 | 0.00 | 0.00 | 86 | 1025.4 | |
| 20260504213122 | 21 | 0.0 | 0.0 | 0.00 | 0.00 | 0.00 | 85 | 1025.2 | |
| 20260504212119 | 21 | 0.0 | 1.6 | 0.00 | 0.00 | 0.00 | 85 | 1025.2 | |
| 20260504211056 | 22 | 0.0 | 1.6 | 0.00 | 0.00 | 0.00 | 82 | 1025.3 | |
| 20260504210054 | 22 | 0.0 | 1.6 | 0.00 | 0.00 | 0.00 | 80 | 1025.1 | |
| 20260504205111 | 22 | 0.0 | 0.0 | 0.00 | 0.00 | 0.00 | 75 | 1025.1 | |
| 20260504204048 | 22 | 0.0 | 0.0 | 0.00 | 0.00 | 0.00 | 73 | 1025.1 | |
| 20260504203045 | 23 | 0.0 | 0.0 | 0.00 | 0.00 | 0.00 | 72 | 1024.7 | |
| 20260504202045 | 23 | 0.0 | 0.0 | 0.00 | 0.00 | 0.00 | 71 | 1024.4 | |
| 20260504201040 | 23 | 0.0 | 0.0 | 0.00 | 0.00 | 0.00 | 70 | 1024.3 | |
| 20260504200037 | 23 | 0.0 | 0.0 | 0.00 | 0.00 | 0.00 | 70 | 1024.4 | |
| 20260504195034 | 24 | 0.0 | 0.0 | 0.00 | 0.00 | 0.00 | 69 | 1024.1 | |
| 20260504194031 | 24 | 0.0 | 0.0 | 0.00 | 0.00 | 0.00 | 67 | 1024.0 | |
| 20260504193048 | 25 | 0.0 | 0.0 | 0.00 | 0.00 | 0.00 | 65 | 1023.9 | |
| 20260504192025 | 26 | 0.0 | 0.0 | 0.00 | 0.00 | 0.00 | 61 | 1023.9 | |
| 20260504191023 | 27 | 0.0 | 0.0 | 0.00 | 0.00 | 0.00 | 60 | 1023.8 | |
| 20260504190020 | 27 | 0.0 | 0.0 | 0.00 | 0.00 | 0.00 | 60 | 1023.8 | |
| 20260504185017 | 26 | 0.0 | 0.0 | 0.00 | 0.00 | 0.00 | 61 | 1023.9 | |
| 20260504184115 | 27 | 0.0 | 0.0 | 0.00 | 0.00 | 0.00 | 58 | 1024.0 | |
| 20260504183112 | 27 | 0.0 | 0.0 | 0.00 | 0.00 | 0.00 | 56 | 1024.2 | |
| 20260504182109 | 27 | 0.0 | 0.0 | 0.00 | 0.00 | 0.00 | 52 | 1024.3 | |
| 20260504181106 | 28 | 0.0 | 0.0 | 0.00 | 0.00 | 0.00 | 50 | 1024.2 | |
| 20260504180104 | 28 | 0.0 | 0.0 | 0.00 | 0.00 | 0.00 | 52 | 1024.1 | |
| 20260504175101 | 27 | 0.0 | 0.0 | 0.00 | 0.00 | 0.00 | 52 | 1024.3 | |
| 20260504174058 | 27 | 0.0 | 0.0 | 0.00 | 0.00 | 0.00 | 52 | 1024.3 | |
| 20260504173055 | 27 | 0.0 | 0.0 | 0.00 | 0.00 | 0.00 | 55 | 1024.7 | |
| 20260504172052 | 26 | 0.0 | 0.0 | 0.00 | 0.00 | 0.00 | 57 | 1025.0 | |
| 20260504171050 | 26 | 0.0 | 0.0 | 0.00 | 0.00 | 0.00 | 60 | 1025.2 | |
| 20260504151016 | 25 | 0.0 | 0.0 | 0.00 | 0.00 | 0.00 | 54 | 1026.7 | |
| 20260504150114 | 24 | 0.0 | 1.6 | 0.00 | 0.00 | 0.00 | 53 | 1026.9 | |
| 20260504141100 | 26 | 0.0 | 0.0 | 0.00 | 0.00 | 0.00 | 50 | 1027.7 | |
| 20260504110107 | 15 | 0.0 | 0.0 | 0.00 | 0.00 | 0.00 | 99 | 1027.4 | |
| 20260504081039 | 9 | 0.0 | 0.0 | 0.00 | 0.00 | 0.00 | 99 | 1027.4 | |
| 20260504045044 | 10 | 0.0 | 0.0 | 0.00 | 0.00 | 0.00 | 97 | 1029.1 | |
| 20260504044021 | 10 | 0.0 | 0.0 | 0.00 | 0.00 | 0.00 | 96 | 1029.3 | |
| 20260504043018 | 10 | 0.0 | 0.0 | 0.00 | 0.00 | 0.00 | 96 | 1029.3 | |
| 20260504042016 | 10 | 0.0 | 0.0 | 0.00 | 0.00 | 0.00 | 94 | 1029.4 | |
| 20260504041113 | 10 | 0.0 | 0.0 | 0.00 | 0.00 | 0.00 | 94 | 1029.5 |